STARLINK-2027 (47645 NORAD) Tracking and Keplerian Element Data

This shows tracking and keplerian element data for the satellite.

Feedback or suggestion? Click here.




ElementValue
Catalog47645
NameSTARLINK-2027
Epoch Orbit235
Epoch Day57.16667824
Epoch Year2021
RAAN52.0254
Inclination53.0495
Eccentricity0.0001621
Argument of Perigee81.1487
Mean Anonmoly177.3884
Mean Motion15.86031933
Decay Rate0.00054616
L11 47645U 21012AB 21057.16667824 .00054616 00000-0 21837-3 0 9993
L22 47645 53.0495 52.0254 0001621 81.1487 177.3884 15.86031933 2358

Live tracking and technical data element details for STARLINK-2027 (NORAD 47645). STARLINK-2027 can be tracked NOW for your location showing map with azimuth and elevation plus other details from your city location.

Track the satellite on the map from your city or location and see movement details for azimuth, elevation, latitude, longitude, range, height, and movement on the map or in text.







IsCatalogInMostPopularTable: catalog: 47645, numindb: 1
Update: records affected: 1



GetName: 47645 STARLINK-2027

Hit Count: updated at: Fri, 26 Feb 2021 09:12:21 GMT